FW8580 Weather Reports


time (UTC)temp
C
wind
direction
speed
KPH
gust
KPH
rain 1hr
cm
rain 24hr
cm
rain mn
cm
humidity
%
barometer
mb
20260502230016 7 296 4.8 19.3 0.00 0.00 0.00 52 1012.1
20260502224502 8 210 4.8 20.9 0.00 0.00 0.00 51 1012.1
20260502223002 8 210 6.4 12.9 0.00 0.00 0.00 52 1012.1
20260502220009 8 76 3.2 19.3 0.00 0.00 0.00 50 1011.9
20260502213010 8 340 6.4 20.9 0.00 0.00 0.00 47 1011.6
20260502211512 9 214 4.8 14.5 0.00 0.00 0.00 47 1011.5
20260502204509 10 11 8.0 17.7 0.00 0.00 0.00 48 1011.4
20260502203001 10 172 9.7 22.5 0.00 0.00 0.00 46 1011.5
20260502201500 10 309 6.4 17.7 0.00 0.00 0.00 49 1011.7
20260502200012 11 236 4.8 14.5 0.00 0.00 0.00 42 1011.7
20260502193018 12 336 4.8 24.1 0.00 0.00 0.00 43 1011.6
20260502190016 11 234 1.6 12.9 0.00 0.00 0.00 46 1011.6
20260502181505 10 5 1.6 11.3 0.00 0.00 0.00 46 1011.9
20260502161457 7 18 1.6 9.7 0.00 0.00 0.00 56 1013.2
20260502123002 3 238 4.8 20.9 0.00 0.00 0.00 64 1013.0
20260502114501 3 286 3.2 16.1 0.00 0.00 0.00 62 1012.8
20260502113003 3 316 3.2 17.7 0.00 0.00 0.00 61 1012.5
20260502111458 3 302 4.8 12.9 0.00 0.00 0.00 62 1012.5
20260502104457 4 340 4.8 16.1 0.00 0.00 0.00 61 1012.5
20260502103011 4 44 6.4 12.9 0.00 0.00 0.00 58 1012.4
20260502101457 4 307 8.0 16.1 0.00 0.00 0.00 58 1012.6
20260502091500 5 342 3.2 16.1 0.00 0.00 0.00 67 1012.7
20260502071457 6 326 8.0 24.1 0.00 0.00 0.00 80 1012.4
20260502070000 6 292 8.0 19.3 0.00 0.00 0.00 79 1012.5
20260502064456 6 252 4.8 24.1 0.00 0.00 0.00 78 1012.5
20260502063008 6 1 4.8 22.5 0.00 0.00 0.00 77 1012.7
20260502061458 6 306 8.0 24.1 0.00 0.00 0.00 76 1012.8
20260502060006 6 62 4.8 14.5 0.00 0.00 0.00 76 1013.0
20260502054459 6 128 6.4 19.3 0.00 0.00 0.00 75 1013.1
20260502053004 7 314 6.4 17.7 0.00 0.00 0.00 76 1013.0
20260502051506 7 199 6.4 19.3 0.00 0.00 0.00 76 1013.1
20260502045957 7 25 6.4 14.5 0.00 0.00 0.00 77 1013.1
20260502044503 7 345 1.6 11.3 0.00 0.00 0.00 78 1013.3
20260502043003 7 23 4.8 17.7 0.00 0.00 0.00 78 1013.1
20260502041500 8 322 6.4 19.3 0.00 0.00 0.00 77 1013.0
20260502040002 8 242 3.2 11.3 0.00 0.00 0.00 76 1013.1
20260502034503 8 179 1.6 11.3 0.00 0.00 0.00 74 1013.2
20260502030001 10 212 1.6 11.3 0.00 0.00 0.00 69 1012.7
20260502023002 10 309 0.0 9.7 0.00 0.00 0.00 67 1012.9
20260502021501 11 70 0.0 1.6 0.00 0.00 0.00 72 1012.6
20260502020002 11 360 0.0 3.2 0.00 0.00 0.00 70 1011.8
20260502013001 11 158 1.6 3.2 0.00 0.00 0.00 69 1011.9
20260502011459 11 340 0.0 4.8 0.00 0.00 0.00 69 1011.5
20260502010001 11 30 0.0 1.6 0.00 0.00 0.00 69 1011.5
20260502004500 11 11 0.0 3.2 0.00 0.00 0.00 69 1010.9
20260502001458 11 251 0.0 4.8 0.00 0.00 0.00 66 1010.6
20260502000001 11 117 1.6 8.0 0.00 0.00 0.00 65 1010.4
20260501234459 12 23 1.6 4.8 0.00 0.00 0.00 64 1010.2